TimeAKDT,TemperatureF,Dew PointF,Humidity,Sea Level PressureIn,VisibilityMPH,Wind Direction,Wind SpeedMPH,Gust SpeedMPH,PrecipitationIn,Events,Conditions,WindDirDegrees,DateUTC
12:53 AM,32.0,27.0,82,29.86,10.0,Calm,Calm,-,N/A,,Mostly Cloudy,0,2012-09-30 08:53:00
1:53 AM,30.0,25.0,82,29.86,10.0,Calm,Calm,-,N/A,,Scattered Clouds,0,2012-09-30 09:53:00
2:53 AM,30.9,26.1,82,29.89,10.0,WNW,3.5,-,N/A,,Scattered Clouds,290,2012-09-30 10:53:00
3:53 AM,33.1,28.0,82,29.91,10.0,NW,5.8,-,N/A,,Mostly Cloudy,310,2012-09-30 11:53:00
4:53 AM,33.1,27.0,78,29.92,10.0,Variable,6.9,-,N/A,,Overcast,0,2012-09-30 12:53:00
5:53 AM,32.0,27.0,82,29.95,10.0,NNW,4.6,-,N/A,,Overcast,330,2012-09-30 13:53:00
6:53 AM,32.0,26.1,79,29.97,10.0,NW,4.6,-,N/A,,Overcast,320,2012-09-30 14:53:00
7:53 AM,32.0,26.1,79,29.99,10.0,NW,5.8,-,N/A,,Overcast,320,2012-09-30 15:53:00
8:53 AM,32.0,27.0,82,30.00,10.0,NNW,6.9,-,N/A,,Mostly Cloudy,330,2012-09-30 16:53:00
9:53 AM,33.1,27.0,78,30.01,10.0,NW,9.2,-,N/A,,Mostly Cloudy,320,2012-09-30 17:53:00
10:53 AM,34.0,27.0,75,30.04,10.0,NW,5.8,-,N/A,,Mostly Cloudy,320,2012-09-30 18:53:00
11:53 AM,35.1,27.0,72,30.04,10.0,NNW,6.9,-,N/A,,Mostly Cloudy,340,2012-09-30 19:53:00
12:53 PM,37.0,27.0,67,30.05,10.0,WNW,5.8,-,N/A,,Mostly Cloudy,300,2012-09-30 20:53:00
1:53 PM,39.9,26.1,58,30.04,10.0,NW,6.9,-,N/A,,Mostly Cloudy,310,2012-09-30 21:53:00
2:53 PM,39.9,25.0,55,30.03,10.0,NW,9.2,-,N/A,,Mostly Cloudy,310,2012-09-30 22:53:00
3:53 PM,39.9,25.0,55,30.02,10.0,Variable,6.9,-,N/A,,Mostly Cloudy,0,2012-09-30 23:53:00
4:53 PM,39.0,25.0,57,30.02,10.0,NW,5.8,-,N/A,,Mostly Cloudy,310,2012-10-01 00:53:00
5:53 PM,37.0,25.0,62,30.01,10.0,NW,4.6,-,N/A,,Mostly Cloudy,320,2012-10-01 01:53:00
6:53 PM,35.1,24.1,64,30.01,10.0,NW,3.5,-,N/A,,Mostly Cloudy,310,2012-10-01 02:53:00
7:53 PM,32.0,24.1,73,30.02,10.0,NW,3.5,-,N/A,,Clear,320,2012-10-01 03:53:00
8:53 PM,32.0,25.0,75,30.02,10.0,NNW,4.6,-,N/A,,Clear,330,2012-10-01 04:53:00
9:53 PM,30.9,25.0,79,30.02,10.0,NW,4.6,-,N/A,,Mostly Cloudy,320,2012-10-01 05:53:00
10:53 PM,30.0,25.0,82,30.02,10.0,NW,6.9,-,N/A,,Mostly Cloudy,320,2012-10-01 06:53:00
11:53 PM,28.9,25.0,85,30.02,10.0,NNW,5.8,-,N/A,,Mostly Cloudy,330,2012-10-01 07:53:00